[[{"header":{"parameterUnit":"m.s-1","parameterCategory":1,"la1":30.2991,"la2":30.254,"lo1":-89.0895,"lo2":-89.0444,"dy":0.0017,"dx":0.0017,"nx":28,"ny":28,"refTime":"2025-12-20T03:00:00:Z","depth":0,"parameterNumber":2,"parameterNumberName":"U-component_of_WINDS"},"data":[0,0,0,0,0,0,0,0,0,0,0,0,0,0,0,0,0,0,0,0,0,0,0,0,0,0,0,0,0,0,0,0,0,0,0,0,0,0,0,0,0,0,0,0,0,0,0,0,0,0,0,0,0,0,0,0,0,0,-3.1542,-3.1543,0,-3.1613,-3.1614,-3.1614,-3.1591,-3.1589,-3.1588,-3.1586,-3.1656,-3.1659,-3.1663,0,0,0,0,0,0,0,0,0,0,0,0,0,-3.1382,-3.1385,-3.1542,-3.1543,-3.1544,-3.1613,-3.1614,-3.1615,-3.1591,-3.1589,-3.1587,-3.1586,-3.1655,-3.1659,-3.1663,0,0,0,0,0,0,0,0,0,0,0,0,0,-3.1452,-3.1386,-3.1542,-3.154,-3.1541,-3.1613,-3.1614,-3.1615,-3.1592,-3.1589,-3.1587,-3.1585,-3.1654,-3.1659,-3.1663,-3.174,0,0,-3.1678,-3.1681,0,0,0,0,0,0,0,0,-3.1448,-3.1458,-3.154,-3.154,-3.1541,-3.1591,-3.1583,-3.1657,-3.1592,-3.1572,-3.1586,-3.1584,-3.1636,-3.1642,-3.1661,-3.1743,-3.1746,-3.1679,-3.1682,-3.1684,-3.1685,0,0,0,0,0,0,0,-3.1444,-3.1455,-3.157,-3.1541,-3.1542,-3.1535,-3.1542,-3.1597,-3.1616,-3.1574,-3.1572,-3.1581,-3.1636,-3.1656,-3.1662,-3.1747,-3.1679,-3.1683,-3.1686,-3.1688,-3.1894,-3.1896,0,0,0,0,0,0,-3.1439,-3.1451,-3.1568,-3.1572,-3.1488,-3.154,-3.1548,-3.1577,-3.1615,-3.1619,-3.1583,-3.158,-3.1649,-3.1656,-3.1664,-3.1754,-3.1684,-3.1689,-3.1691,-3.1891,-3.1894,-3.1897,0,0,0,0,0,0,-3.1435,-3.1449,-3.1565,-3.1511,-3.1525,-3.1545,-3.1578,-3.158,-3.1599,-3.1622,-3.1625,-3.16,-3.1647,-3.1657,-3.1721,-3.1757,-3.1691,-3.1695,-3.1888,-3.1892,-3.1896,-3.1936,0,0,0,0,0,0,-3.1431,-3.1448,-3.1478,-3.1512,-3.1528,-3.1621,-3.158,-3.1583,-3.1608,-3.1605,-3.1639,-3.1642,-3.1646,-3.1714,-3.1726,-3.1762,-3.1699,-3.1885,-3.189,-3.1894,-3.1932,-3.1941,-3.1949,0,0,0,0,0,-3.1425,-3.1487,-3.148,-3.1494,-3.1566,-3.1623,-3.1632,-3.1636,-3.1611,-3.1641,-3.1656,-3.1641,-3.1751,-3.172,-3.1734,-3.1772,-3.1883,-3.1889,-3.1894,-3.1928,-3.1939,-3.1949,0,0,0,0,0,0,-3.1456,-3.1491,-3.1484,-3.1558,-3.1588,-3.1619,-3.1657,-3.1648,-3.1685,-3.168,-3.1682,-3.169,-3.1755,-3.177,-3.1735,-3.1847,-3.1813,-3.1822,-3.1834,-3.1845,-3.1854,-3.1847,-3.1703,0,0,0,0,0,-3.1471,-3.1516,-3.1544,-3.1607,-3.1622,-3.1637,-3.1662,-3.1662,-3.1693,-3.1705,-3.1724,-3.1753,-3.1794,-3.1821,-3.186,-3.1935,-3.1941,-3.1968,-3.1976,-3.1983,-3.199,-3.2028,-3.204,-3.1916,-3.1915,-3.1915,0,0,-3.1503,-3.1528,-3.1556,-3.1613,-3.1636,-3.1681,-3.1648,-3.1696,-3.1729,-3.1712,-3.1773,-3.1788,-3.1821,-3.189,-3.1921,-3.1904,-3.2026,-3.199,-3.1996,-3.1998,-3.2035,-3.2047,-3.2057,-3.1919,-3.1919,-3.1918,0,0,-3.1584,-3.1609,-3.1663,-3.1687,-3.1722,-3.1732,-3.1745,-3.1777,-3.1787,-3.1848,-3.1836,-3.1874,-3.1946,-3.1969,-3.199,-3.2079,-3.2066,-3.2092,-3.2135,-3.2173,-3.2183,-3.2191,-3.2221,-3.2232,-3.2099,-3.2099,-3.2099,0,-3.1619,-3.1687,-3.1691,-3.1741,-3.1765,-3.1754,-3.1807,-3.183,-3.1876,-3.1893,-3.1874,-3.1962,-3.1984,-3.2057,-3.2079,-3.2097,-3.211,-3.2087,-3.2181,-3.219,-3.2198,-3.2226,-3.2237,-3.2102,-3.2101,-3.2101,-3.2101,0,-3.1727,-3.1774,-3.1813,-3.1858,-3.1888,-3.1939,-3.195,-3.198,-3.1978,-3.1989,-3.205,-3.2076,-3.2119,-3.2137,-3.2135,-3.2209,-3.2198,-3.2181,-3.2146,-3.2212,-3.2239,-3.225,-3.2105,-3.2105,-3.2104,-3.2103,0,0,-3.1827,-3.1875,-3.1889,-3.1908,-3.1947,-3.1982,-3.2033,-3.2076,-3.21,-3.2133,-3.2173,-3.2234,-3.2218,-3.2242,-3.2243,-3.2276,-3.2342,-3.2254,-3.2255,-3.2267,-3.2423,-3.2434,-3.2446,-3.2335,-3.2337,-3.2339,-3.2419,0,-3.1909,-3.1998,-3.2004,-3.2084,-3.2126,-3.2115,-3.2159,-3.2187,-3.2198,-3.2235,-3.2248,-3.229,-3.2267,-3.2281,-3.2313,-3.2327,-3.2373,-3.2322,-3.2371,-3.2372,-3.236,-3.246,-3.2472,-3.2547,-3.243,-3.2431,-3.2433,0,-3.2016,-3.2052,-3.2136,-3.2168,-3.2186,-3.2225,-3.2264,-3.23,-3.2331,-3.2337,-3.2364,-3.236,-3.241,-3.2375,-3.2443,-3.2408,-3.2429,-3.2439,-3.2442,-3.2444,-3.2405,-3.2463,-3.2571,-3.2581,-3.245,-3.2448,-3.2447,0,-3.2077,-3.2147,-3.2206,-3.2224,-3.2263,-3.229,-3.2307,-3.2336,-3.2361,-3.2395,-3.2411,-3.2451,-3.2472,-3.2502,-3.2508,-3.2483,-3.2575,-3.2542,-3.2579,-3.2579,-3.2597,-3.2595,-3.2707,-3.2615,-3.2615,-3.2615,-3.2614,0,-3.2166,-3.2218,-3.2234,-3.227,-3.2327,-3.2333,-3.2389,-3.2404,-3.243,-3.2467,-3.2461,-3.2496,-3.2504,-3.254,-3.2546,-3.26,-3.261,-3.2615,-3.2615,-3.2614,-3.2613,-3.2625,-3.2619,-3.2618,-3.2617,-3.2616,-3.2616,0,-3.2244,-3.2257,-3.232,-3.2352,-3.2361,-3.2402,-3.2428,-3.2462,-3.2473,-3.2521,-3.2533,-3.255,-3.2593,-3.2603,-3.2653,-3.2657,-3.272,-3.2716,-3.2709,-3.2708,-3.2745,-3.274,-3.2866,-3.2882,-3.2782,-3.2783,-3.2784,0,-3.2298,-3.2338,-3.2374,-3.2399,-3.2418,-3.2459,-3.2484,-3.2492,-3.2518,-3.2556,-3.2585,-3.2627,-3.2661,-3.2729,-3.2745,-3.2783,-3.2779,-3.2821,-3.2785,-3.2782,-3.2777,-3.2773,-3.2776,-3.2827,-3.2828,-3.2829,-3.2829,0,-3.2393,-3.2398,-3.2436,-3.2476,-3.2507,-3.2538,-3.2568,-3.2589,-3.26,-3.2631,-3.2674,-3.2701,-3.2753,-3.2793,-3.2832,-3.2848,-3.284,-3.2841,-3.2851,-3.2849,-3.2842,-3.2844,-3.2725,-3.2837,-3.2837,-3.2836,-3.2836,-3.2835,-3.2459,-3.2493,-3.2523,-3.2565,-3.2589,-3.2617,-3.265,-3.2666,-3.2703,-3.2746,-3.2748,-3.2795,-3.2824,-3.2874,-3.2893,-3.2929,-3.2916,-3.2932,-3.2935,-3.2938,-3.294,-3.2839,-3.2936,-3.2936,-3.2936,-3.2936,-3.2936,0,-3.2551,-3.257,-3.2609,-3.2651,-3.2684,-3.2676,-3.2708,-3.2736,-3.2778,-3.2806,-3.2839,-3.2888,-3.2928,-3.2948,-3.2987,-3.3012,-3.3009,-3.3021,-3.3018,-3.3022,-3.2951,-3.2937,-3.3023,-3.3023,-3.3023,-3.3023,-3.3023,-3.3023,-3.2603,-3.2659,-3.2667,-3.2734,-3.2753,-3.2799,-3.2819,-3.2844,-3.2866,-3.2922,-3.2955,-3.2968,-3.2993,-3.3033,-3.3069,-3.3073,-3.3087,-3.3101,-3.3103,-3.3036,-3.3027,-3.3018,-3.3005,-3.3104,-3.3104,-3.3171,-3.3171,-3.3172]},{"header":{"parameterUnit":"m.s-1","parameterCategory":1,"la1":30.2991,"la2":30.254,"lo1":-89.0895,"lo2":-89.0444,"dy":0.0017,"dx":0.0017,"nx":28,"ny":28,"refTime":"2025-12-20T03:00:00:Z","depth":0,"parameterNumber":3,"parameterNumberName":"V-component_of_WINDS"},"data":[0,0,0,0,0,0,0,0,0,0,0,0,0,0,0,0,0,0,0,0,0,0,0,0,0,0,0,0,0,0,0,0,0,0,0,0,0,0,0,0,0,0,0,0,0,0,0,0,0,0,0,0,0,0,0,0,0,0,1.7375,1.7376,0,1.7454,1.7455,1.7456,1.7454,1.7453,1.7452,1.745,1.7534,1.7537,1.754,0,0,0,0,0,0,0,0,0,0,0,0,0,1.7224,1.7227,1.7375,1.7376,1.7377,1.7454,1.7455,1.7456,1.7454,1.7453,1.7451,1.745,1.7533,1.7537,1.754,0,0,0,0,0,0,0,0,0,0,0,0,0,1.7295,1.7228,1.7374,1.7385,1.7386,1.7454,1.7455,1.7457,1.7454,1.7453,1.7451,1.7449,1.7531,1.7536,1.7541,1.7604,0,0,1.7556,1.7558,0,0,0,0,0,0,0,0,1.7291,1.7301,1.7382,1.7384,1.7386,1.7442,1.7433,1.7506,1.7455,1.7429,1.745,1.7449,1.7505,1.7512,1.753,1.7608,1.7612,1.7556,1.7559,1.7561,1.7563,0,0,0,0,0,0,0,1.7286,1.7297,1.7406,1.7383,1.7386,1.7387,1.7395,1.7447,1.7475,1.7431,1.7431,1.744,1.7506,1.7526,1.7532,1.7613,1.7556,1.7561,1.7564,1.7565,1.775,1.7752,0,0,0,0,0,0,1.7279,1.7293,1.7404,1.7409,1.7334,1.7391,1.74,1.7426,1.7474,1.748,1.7441,1.744,1.7518,1.7527,1.7535,1.7615,1.7561,1.7566,1.7569,1.7748,1.7751,1.7753,0,0,0,0,0,0,1.7276,1.7289,1.74,1.7351,1.7365,1.7395,1.7424,1.7428,1.7449,1.7483,1.7488,1.7457,1.7517,1.7528,1.7588,1.7618,1.7568,1.7573,1.7746,1.7749,1.7752,1.7774,0,0,0,0,0,0,1.7271,1.7287,1.7311,1.7352,1.7368,1.7451,1.7426,1.7431,1.7457,1.7455,1.7498,1.7504,1.7517,1.7581,1.7593,1.7624,1.7576,1.7744,1.7747,1.7751,1.7771,1.7777,1.7783,0,0,0,0,0,1.7266,1.7313,1.7312,1.7325,1.7397,1.7452,1.7462,1.7475,1.7459,1.7484,1.7506,1.7502,1.7612,1.7587,1.76,1.7633,1.7742,1.7746,1.7751,1.7768,1.7776,1.7783,0,0,0,0,0,0,1.7276,1.7319,1.7318,1.738,1.7412,1.7452,1.7483,1.7483,1.7521,1.7519,1.7534,1.7544,1.7604,1.7624,1.7595,1.7699,1.7675,1.7683,1.7684,1.7692,1.7698,1.7693,1.758,0,0,0,0,0,1.7285,1.7325,1.7361,1.7412,1.7428,1.7453,1.7477,1.7485,1.752,1.7534,1.756,1.7595,1.7638,1.7665,1.7706,1.7773,1.7784,1.7803,1.7809,1.7814,1.7821,1.7861,1.7871,1.7768,1.7768,1.7768,0,0,1.7305,1.7333,1.7357,1.7415,1.7441,1.7484,1.7465,1.751,1.7542,1.7541,1.7599,1.762,1.766,1.7724,1.7754,1.7743,1.7852,1.782,1.7823,1.7828,1.7867,1.7876,1.7885,1.7771,1.777,1.777,0,0,1.7363,1.7387,1.7434,1.7461,1.7501,1.7518,1.7529,1.7569,1.7583,1.7642,1.7643,1.7682,1.7754,1.7784,1.7808,1.788,1.7879,1.7893,1.7926,1.7965,1.7973,1.798,1.8009,1.8019,1.7899,1.7899,1.7899,0,1.7383,1.7446,1.7458,1.7505,1.7531,1.7532,1.7581,1.7607,1.7659,1.7678,1.7664,1.7757,1.7784,1.7857,1.7875,1.7893,1.7909,1.7889,1.797,1.7978,1.7985,1.8013,1.8023,1.7901,1.7901,1.79,1.79,0,1.747,1.7514,1.7547,1.7598,1.7628,1.7675,1.7697,1.7726,1.7731,1.775,1.7811,1.7843,1.7892,1.791,1.7915,1.7985,1.7977,1.7967,1.7944,1.7996,1.8023,1.8033,1.7903,1.7903,1.7902,1.7902,0,0,1.7537,1.7594,1.7607,1.7631,1.7676,1.7711,1.776,1.7808,1.7834,1.787,1.7913,1.7975,1.7967,1.7995,1.8004,1.8038,1.8097,1.8024,1.8025,1.8039,1.8179,1.8188,1.8199,1.8096,1.8098,1.8099,1.8176,0,1.7602,1.7687,1.7701,1.7777,1.782,1.7822,1.7865,1.7898,1.7917,1.7957,1.7978,1.8023,1.8007,1.8025,1.8058,1.8082,1.8125,1.8077,1.8138,1.814,1.813,1.8213,1.8222,1.8293,1.8186,1.8188,1.8189,0,1.7689,1.7728,1.7809,1.7851,1.7869,1.7907,1.7954,1.7991,1.803,1.8042,1.8074,1.8079,1.8132,1.8105,1.818,1.8146,1.8172,1.8188,1.8191,1.8199,1.8169,1.8226,1.8316,1.8327,1.8205,1.8204,1.8202,0,1.7734,1.7806,1.7864,1.7885,1.7934,1.7962,1.7984,1.8021,1.805,1.8091,1.811,1.8156,1.8182,1.8219,1.8238,1.8216,1.8312,1.8286,1.8325,1.8325,1.8347,1.8346,1.8445,1.8359,1.8359,1.8359,1.8359,0,1.7807,1.7857,1.7885,1.7922,1.7978,1.7994,1.805,1.8072,1.8105,1.8147,1.8151,1.8191,1.8212,1.8255,1.827,1.8331,1.8342,1.8355,1.8359,1.8356,1.8355,1.8375,1.8371,1.8362,1.8361,1.836,1.836,0,1.7867,1.7887,1.7952,1.7994,1.8006,1.8046,1.8083,1.8119,1.8138,1.8191,1.8205,1.8235,1.8286,1.8308,1.8371,1.8381,1.8452,1.8451,1.8439,1.8441,1.848,1.8478,1.8598,1.8616,1.8516,1.8517,1.8517,0,1.7913,1.7952,1.7998,1.8027,1.805,1.8095,1.8124,1.8142,1.8173,1.8222,1.8253,1.8304,1.8346,1.8428,1.8457,1.8506,1.8508,1.8546,1.8515,1.8512,1.8512,1.8511,1.8516,1.8553,1.8554,1.8555,1.8555,0,1.7994,1.8003,1.8046,1.8093,1.8128,1.8166,1.8203,1.8226,1.825,1.8285,1.8338,1.837,1.8435,1.8487,1.8538,1.8562,1.8565,1.8565,1.8577,1.8576,1.8569,1.8577,1.8458,1.8562,1.8562,1.8561,1.8561,1.8561,1.8051,1.8087,1.8126,1.8174,1.8204,1.8239,1.8276,1.83,1.8344,1.8398,1.8406,1.8463,1.8503,1.8572,1.8598,1.8644,1.8635,1.8652,1.8657,1.8661,1.8665,1.856,1.8653,1.8653,1.8653,1.8653,1.8653,0,1.8136,1.8161,1.8205,1.8257,1.8296,1.8292,1.8334,1.8367,1.8417,1.8454,1.8496,1.8558,1.8609,1.8642,1.8693,1.8724,1.8727,1.8738,1.8737,1.8743,1.8669,1.8655,1.8735,1.8735,1.8735,1.8735,1.8735,1.8735,1.8184,1.8245,1.8259,1.8336,1.8362,1.8417,1.8442,1.8475,1.8505,1.8574,1.8617,1.8637,1.8674,1.8729,1.8776,1.8785,1.8805,1.8817,1.8826,1.8756,1.8748,1.874,1.8727,1.8821,1.8821,1.8896,1.8897,1.8897]}]]